Regional Weather Roundup
Issued by NWS Cleveland, OH

Home | Current Version | Previous Version | Graphics & Text | Print | Product List | Glossary On
Versions: 1 2 3 4 5 6 7 8 9 10 11 12 13 14 15 16 17 18 19 20 21 22 23 24 25 26 27 28 29 30 31 32 33 34 35 36 37 38 39 40 41 42 43 44 45 46 47 48 49 50
000
ASUS41 KCLE 271510
RWRCLE
OHIO REGIONAL WEATHER ROUNDUP
NATIONAL WEATHER SERVICE WILMINGTON, OH
1000 AM EST MON FEB 27 2017

NOTE: "FAIR" INDICATES FEW OR NO CLOUDS BELOW 12,000 FEET WITH NO
SIGNIFICANT WEATHER AND/OR OBSTRUCTIONS TO VISIBILITY.

OHZ001>008-015>018-024>027-034-035-043-044-271600-
   NORTHWEST OHIO

CITY           SKY/WX    TMP DP  RH WIND       PRES   REMARKS
DEFIANCE       FAIR      40  28  62 SW10      30.24R
FINDLAY        CLOUDY    42  29  59 S6        30.24R
TOLEDO EXPRESS FAIR      41  26  55 S8        30.23S
TOLEDO EXEC    PTSUNNY   42  27  55 SW12      30.25R
LIMA           CLOUDY    41  32  70 S6        30.25R
$$

OHZ009>014-019>023-028>033-038-089-271600-
   NORTHEAST OHIO

CITY           SKY/WX    TMP DP  RH WIND       PRES   REMARKS
CLE-HOPKINS    CLOUDY    44  21  40 SW9       30.29R
CLE-LAKEFRONT  PTSUNNY   45  21  38 SW12      30.26R
CUY CO. ARPT   PTSUNNY   45  21  39 SW9       30.26R
LORAIN-ELYRIA  CLOUDY    40  23  50 SW9       30.27R
ASHTABULA      FAIR      40  20  44 SW8       30.27R
AKRON-CANTON   CLOUDY    40  20  44 S8        30.28R
WOOSTER        CLOUDY    37  22  54 SW9       30.28R
MANSFIELD      CLOUDY    40  25  55 S6        30.26R
YOUNGSTOWN     CLOUDY    40  22  48 S6        30.28R
$$

OHZ042-051>053-060>062-070>072-077>081-271600-
  SOUTHWEST OHIO

CITY           SKY/WX    TMP DP  RH WIND       PRES   REMARKS
CINC-COVINGTON CLOUDY    42  40  92 SE6       30.24F
CINC-LUNKEN    LGT RAIN  43  41  93 SE3       30.28F
HAMILTON       PTSUNNY   45  39  79 VRB7      30.27F
DAYTON         CLOUDY    43  30  60 S10       30.26R
WRIGHT-PAT AFB CLOUDY    44  33  66 S10       30.26R
DAYTON GENERAL CLOUDY    43  37  79 S9        30.25S
WILMINGTON     LGT RAIN  41  39  93 S9        30.27S
$$

OHZ036-037-039>041-045>050-054>059-063>069-073>076-082>088-271600-
  CENTRAL AND SOUTHEAST OHIO

CITY           SKY/WX    TMP DP  RH WIND       PRES   REMARKS
COLUMBUS       CLOUDY    44  30  57 S8        30.28R
OSU AIRPORT    CLOUDY    42  28  57 S9        30.27R
BOLTON FIELD   CLOUDY    43  34  70 S9        30.28S
RICKENBACK AFB DRIZZLE   42  34  74 S12       30.29R
NEWARK         CLOUDY    42  25  50 S10       30.29R
MARION         CLOUDY    41  26  55 S7        30.27R
LANCASTER      CLOUDY    43  35  73 S8        30.31R
ZANESVILLE     CLOUDY    43  28  55 S9        30.31R
NEW PHILLY     CLOUDY    41  22  46 CALM      30.30R
$$



USA.gov is the U.S. government's official web portal to all federal, state and local government web resources and services.